Location: Baix
(44.7118°N, 4.7648°E)
Time: 13:27:55
(UTC+00:00)

Vanguard 2 Rocket - Pass Details

Date: 01 December 2020
Orbit: 554 x 3325 km, 32.9° (Epoch: 23 January)

Event Time Altitude Azimuth Distance (km) Brightness Sun altitude
Rises 06:27:59 0° 228° (SW) 6,759 11.1 -5.6°
Reaches altitude 10° 06:32:29 10° 222° (SW) 5,973 10.9 -4.9°
Maximum altitude 06:50:31 46° 158° (SSE) 4,023 10.7 -2.0°
Drops below altitude 10° 07:07:07 10° 93° (E) 5,557 12.1 0.5°
Sets 07:11:05 0° 88° (E) 6,277 12.2 1.1°
